Погода в Хар-Булуке

Россия / Республика Калмыкия     46°18′56″N   44°02′07″E
темп.,
°C
ветер,
м/с
пор.,
м/с
влажн.,
%
обл.,
%
осадки,
мм/ч
давл.,
гПа
погр.,
м
30 ноября, вт
вт3000:00+9ююв8168570 0.0 1008379
03:00+8ююв7168599 0.0 1005292
06:00+9ю51179100 0.0 1004230
09:00+13зюз91776100 0.0 1006985
12:00+13з101672100 1.8 1005953
15:00+13зюз71266100 1.9 1004667
18:00+10ю227828 0.0 100313
21:00+9юв468156 0.0 999106
1 декабря, ср
ср100:00+10ююв81790100 1.2 995603
03:00+10юз91581100 11.3 9971105
06:00+9з91670100 0.4 996856
09:00+9юз15216793 0.4 9981255
12:00+4з121783100 0.1 10041108
15:00+5з1116595 0.2 10061283
18:00+4зсз613610 0.0 1008659
21:00+3з51263100 0.0 1008361
2 декабря, чт
чт200:00+4юз71485100 0.1 10091062
03:00+4зюз81280100 0.5 1010973
06:00+2зюз511905 0.1 1013428
09:00+3зюз6108519 0.2 1016797
12:00+5з81161100 0.0 10171250
15:00+6з610605 0.0 10181143
18:00+4зюз337248 0.0 101941
21:00+3юз35765 0.0 102067
3 декабря, пт
пт300:00+3ююз35865 0.0 102178
03:00+3ююз348626 0.0 102156
06:00+3ю488119 0.0 1021124
09:00+4ю41176100 0.0 1022293
12:00+8ююв61058100 0.0 1021460
15:00+8юв5958100 0.0 1020427
18:00+5вюв497974 0.0 1021162
21:00+5вюв499187 0.0 1020182
4 декабря, сб
сб400:00+4юв4995100 0.0 1019179
03:00+4юв3596100 0.0 101998
06:00+3юв3596100 0.0 101984
09:00+4юв3594100 0.0 1019133
12:00+8юв34736 0.0 1018292
15:00+9вюв5671100 0.0 1016364
18:00+6вюв48888 0.0 1016168
21:00+5вюв51093100 0.0 1015237